Hourly Data Report for October 27, 2013

All times are specified in Local Standard Time (LST). Add 1 hour to adjust for Daylight Saving Time where and when it is observed.

MONCTON INTL A
NEW BRUNSWICK

46°06'44.000" N
64°40'43.000" W
70.70 m
8103201
71705
YQM

Download Data

Hourly Data (October 2013)
Hourly Data Report for October 27, 2013
Temp Definition
°C
Dew Point Temp Definition
°C
Rel Hum Definition
%
Wind Dir Definition
10's deg

Wind Spd Definition
km/h
Visibility Definition
km
Stn Press Definition
kPa
Hmdx Definition


Wind Chill Definition


Weather Definition


TIME
00:00 Legend Double Dagger 3.9 2.6 91 22 19 19.3 100.48     Rain
01:00 Legend Double Dagger 3.2 2.5 95 18 10 24.1 100.42     Rain
02:00 Legend Double Dagger 3.1 2.5 96 14 9 24.1 100.37     Rain
03:00 Legend Double Dagger 3.2 2.6 96 14 8 24.1 100.33     LegendNANA
04:00 Legend Double Dagger 3.5 2.8 95 13 8 24.1 100.28     LegendNANA
05:00 Legend Double Dagger 3.5 2.9 96 13 10 24.1 100.23     Rain Showers
06:00 Legend Double Dagger 3.9 3.3 96 14 5 24.1 100.17     Rain Showers
07:00 Legend Double Dagger 4.0 3.1 94 14 9 19.3 100.14     Rain Showers
08:00 Legend Double Dagger 4.2 3.6 96 6 3 19.3 100.14     Rain Showers
09:00 Legend Double Dagger 4.6 3.6 93 12 3 19.3 100.11     Rain Showers
10:00 Legend Double Dagger 4.9 4.0 94 11 4 19.3 100.03     Rain Showers
11:00 Legend Double Dagger 5.5 4.9 96 35 6 19.3 99.94     Rain Showers
12:00 Legend Double Dagger 5.5 4.9 96 31 8 19.3 99.86     Rain Showers
13:00 Legend Double Dagger 6.3 5.1 92 29 6 19.3 99.81     Rain Showers
14:00 Legend Double Dagger 6.3 4.6 89 28 13 24.1 99.81     Rain Showers
15:00 Legend Double Dagger 6.4 4.2 86 28 13 24.1 99.85     Rain Showers
16:00 Legend Double Dagger 6.4 4.4 87 27 10 24.1 99.84     Rain Showers
17:00 Legend Double Dagger 5.3 4.3 93 23 10 24.1 99.87     Mostly Cloudy
18:00 Legend Double Dagger 5.1 4.4 95 23 11 24.1 99.95     LegendNANA
19:00 Legend Double Dagger 4.9 4.3 96 19 6 24.1 99.98     LegendNANA
20:00 Legend Double Dagger 4.8 4.2 96 20 12 24.1 100.04     Mostly Cloudy
21:00 Legend Double Dagger 3.9 3.3 96 20 10 24.1 100.02     LegendNANA
22:00 Legend Double Dagger 3.6 3.0 96 21 13 24.1 100.06     LegendNANA
23:00 Legend Double Dagger 3.8 3.2 96 21 11 24.1 100.06     Mostly Cloudy

Notes on Data Quality.

Legend

  • E = Estimated
  • M = Missing
  • NA = Not Available
  • ‡ = Partner data that is not subject to review by the National Climate Archives
Date modified: